Terug naar catalogus

NOAA 16 DEB

ActiefSSO
NORAD 41537·DEBRIS·🇺🇸 United States

Gelanceerd Sep 21, 2000 vanaf Vandenberg Space Force Base

Loading…

Volgende Passages (komende 24 uur)

TLE

VersSource: Space-Track

Epoch: Sep 14, 2026, 03:20 UTC

1 41537U 00055NM  26257.13954812  .00001320  00000-0  59239-3 0  9992
2 41537  98.5796 318.7135 0003759  54.8865 305.2666 14.24111722550287

Volg NOAA 16 DEB in realtime met AllMySat

Download on the App Store